Date,TemperatureHighF,TemperatureAvgF,TemperatureLowF,DewpointHighF,DewpointAvgF,DewpointLowF,HumidityHigh,HumidityAvg,HumidityLow,PressureMaxIn,PressureMinIn,WindSpeedMaxMPH,WindSpeedAvgMPH,GustSpeedMaxMPH,PrecipitationSumIn
2013-1-1,40.9,38.1,31.5,39.0,35.9,29.0,93,92,86,30.12,29.99,14,1,14,0.29
2013-1-2,32.1,29.3,27.2,29.0,24.3,22.0,91,82,69,30.23,30.11,10,0,10,0.00
2013-1-3,41.6,31.9,24.7,25.2,22.0,16.5,90,69,36,30.40,30.20,3,0,9,0.01
2013-1-4,43.7,34.1,25.1,25.5,22.3,20.4,84,63,43,30.45,30.36,6,0,9,0.00
2013-1-5,46.0,36.9,25.7,30.6,25.9,21.5,86,65,46,30.39,30.21,6,0,6,0.00
2013-1-6,49.8,40.1,29.1,35.0,29.7,21.2,83,67,48,30.35,30.12,11,1,15,0.00
2013-1-7,45.2,34.7,25.3,27.1,23.6,19.8,81,65,45,30.42,30.23,6,0,6,0.00
2013-1-8,57.6,44.9,32.4,40.4,33.0,24.8,79,64,42,30.32,30.19,14,0,14,0.00
2013-1-9,52.8,51.0,48.9,50.8,47.7,40.4,93,88,71,30.37,30.23,6,0,6,0.60
2013-1-10,64.2,57.5,51.0,59.8,54.8,49.0,95,91,79,30.36,29.94,21,3,21,0.37
2013-1-11,69.1,63.7,58.0,60.9,57.3,53.4,92,80,65,30.01,29.90,20,2,20,0.18
2013-1-12,67.8,66.1,64.5,64.3,62.0,58.9,93,87,76,29.98,29.78,18,2,18,0.58
2013-1-13,66.9,53.5,34.3,61.0,49.8,31.1,94,88,75,30.18,29.77,19,2,19,2.27
2013-1-14,34.3,30.0,26.6,31.1,25.2,21.3,89,82,73,30.35,30.18,16,2,16,0.00
2013-1-15,33.2,31.2,28.2,31.1,28.4,24.8,92,89,87,30.24,29.99,10,1,10,0.48
2013-1-16,34.0,32.9,32.1,31.6,30.7,30.3,93,91,89,30.11,29.99,7,0,7,0.29
2013-1-17,44.2,37.2,32.8,33.2,29.0,22.5,89,72,63,30.41,30.04,23,2,25,0.04
2013-1-18,48.6,37.3,27.2,29.8,25.3,22.0,84,63,39,30.54,30.34,9,0,9,0.00
2013-1-19,56.5,45.6,34.7,32.3,28.5,24.0,69,52,34,30.34,30.10,17,1,17,0.00
2013-1-20,51.9,43.4,32.8,33.5,25.2,16.8,76,51,25,30.23,30.12,10,0,10,0.00
2013-1-21,38.9,31.5,24.2,18.7,13.7,6.9,63,48,33,30.28,30.14,15,1,15,0.00
2013-1-22,29.8,24.9,18.9,8.2,3.0,-3.8,57,39,27,30.42,30.27,9,0,9,0.00
2013-1-23,51.3,36.9,22.9,32.5,18.8,3.9,70,48,36,30.36,30.12,13,0,13,0.00
2013-1-24,41.9,31.4,26.7,32.0,12.8,2.8,72,47,31,30.46,30.17,11,2,13,0.00
2013-1-25,36.3,32.6,29.1,33.9,26.0,4.9,91,78,35,30.27,30.01,14,0,14,0.42
2013-1-26,46.0,36.4,30.1,31.9,28.5,25.1,91,75,45,30.32,30.21,9,0,9,0.00
2013-1-27,51.0,40.6,29.1,40.9,33.7,25.4,88,77,57,30.32,30.17,13,1,17,0.01
2013-1-28,59.3,54.6,48.3,51.0,45.4,36.7,78,71,63,30.19,30.07,16,2,17,0.00
2013-1-29,68.6,62.0,55.4,60.5,56.2,49.5,89,81,73,30.08,29.54,23,3,26,0.00
2013-1-30,70.6,52.4,34.9,60.6,45.5,22.7,93,78,59,29.85,29.38,30,3,30,1.11
2013-1-31,45.8,37.9,30.0,33.3,23.9,19.6,88,58,39,30.18,29.85,19,2,22,0.03
2013-2-1,30.0,23.4,15.9,26.1,11.9,5.3,86,61,45,30.49,30.18,16,1,16,0.03
2013-2-2,43.1,32.7,22.5,32.7,24.8,14.2,85,73,57,30.31,30.05,13,1,13,0.03
2013-2-3,48.2,37.9,29.5,32.3,28.0,22.8,84,68,47,30.15,29.96,17,1,17,0.01
2013-2-4,58.4,42.3,28.2,34.2,27.1,22.8,84,59,27,30.11,29.86,18,1,18,0.00
2013-2-5,62.4,51.3,44.8,41.7,35.0,29.0,75,55,31,30.02,29.87,12,0,12,0.00
2013-2-6,56.5,47.2,37.8,34.5,31.1,26.4,77,55,36,30.19,30.02,7,0,7,0.00
2013-2-7,63.7,51.7,42.5,45.9,38.3,29.3,80,61,47,30.07,29.84,12,1,12,0.00
2013-2-8,51.9,42.1,34.0,47.1,35.3,25.9,89,77,65,30.31,29.82,16,2,16,0.10
2013-2-9,51.3,41.4,32.8,29.8,27.0,24.8,74,58,38,30.34,30.10,15,1,15,0.00
2013-2-10,58.7,52.2,46.0,53.9,41.6,29.1,92,70,43,30.11,29.80,23,2,25,0.71
2013-2-11,56.5,49.9,41.6,54.2,35.6,24.3,92,60,33,30.12,29.85,14,1,14,0.00
2013-2-12,51.1,45.0,38.3,36.4,30.5,27.0,77,58,41,30.12,29.77,10,0,10,0.02
2013-2-13,44.5,39.0,34.7,37.6,34.3,30.9,92,83,69,29.97,29.67,15,1,15,0.29
2013-2-14,60.5,46.0,34.0,39.4,32.6,29.2,91,63,33,30.00,29.92,15,1,15,0.00
2013-2-15,49.6,42.4,31.5,34.9,28.5,18.5,77,58,41,30.15,29.97,16,2,16,0.00
2013-2-16,31.5,28.1,24.7,21.0,17.8,16.7,76,65,59,30.13,30.09,7,0,7,0.00
2013-2-17,47.0,34.2,22.5,18.7,14.8,10.1,65,46,28,30.27,30.14,9,0,9,0.00
2013-2-18,63.1,49.0,35.6,41.9,29.9,17.4,87,49,32,30.14,29.80,24,3,25,0.33
2013-2-19,49.2,42.1,32.5,44.5,27.2,14.3,91,59,28,30.19,29.78,22,2,26,0.12
2013-2-20,33.8,29.6,24.4,18.5,14.7,11.8,64,54,41,30.32,30.19,10,1,11,0.00
2013-2-21,45.8,35.7,26.6,39.7,23.6,15.4,93,64,31,30.22,29.82,17,2,17,0.63
2013-2-22,61.5,52.0,41.6,48.0,43.7,35.9,94,75,50,29.99,29.82,14,1,14,0.01
2013-2-23,52.3,42.4,36.8,36.2,30.8,25.5,82,64,45,29.98,29.86,9,1,9,0.00
2013-2-24,51.4,41.2,30.0,26.5,23.8,21.2,75,52,32,30.11,29.96,10,1,10,0.00
2013-2-25,63.5,49.6,36.9,45.9,30.5,23.1,77,49,28,29.98,29.48,23,3,25,0.01
2013-2-26,53.1,47.0,38.3,47.3,41.1,33.9,89,80,63,29.66,29.33,24,3,24,0.23
2013-2-27,41.2,38.8,37.6,34.2,31.1,28.7,84,74,67,29.86,29.66,15,2,15,0.00
2013-2-28,40.9,36.1,32.9,30.3,27.1,23.9,83,70,56,30.02,29.83,14,1,14,0.02
2013-3-1,39.6,34.8,32.1,34.2,30.5,29.4,91,84,73,30.04,29.98,6,1,9,0.07
2013-3-2,33.2,31.3,29.3,30.6,27.6,23.6,91,86,75,30.14,30.00,14,1,14,0.10
2013-3-3,41.5,33.5,24.8,23.9,17.0,9.2,80,53,27,30.14,30.06,12,1,14,0.02
2013-3-4,56.7,45.6,34.0,32.9,23.8,16.3,59,43,32,30.10,29.80,15,2,16,0.00
2013-3-5,56.0,46.3,32.1,53.7,39.4,19.8,92,78,47,29.96,29.61,22,3,24,0.80
2013-3-6,39.5,34.3,31.3,27.3,24.4,22.0,73,67,58,30.28,29.95,19,3,19,0.01
2013-3-7,41.5,34.1,30.1,27.6,25.0,23.1,77,69,56,30.37,30.27,7,1,7,0.00
2013-3-8,54.2,41.5,29.3,29.7,24.9,20.1,81,56,27,30.39,30.25,12,1,12,0.00
2013-3-9,66.3,53.5,40.1,34.1,30.7,27.2,65,44,27,30.22,29.98,15,1,15,0.00
2013-3-10,69.1,62.6,55.6,49.8,37.9,32.0,60,40,32,29.98,29.73,25,3,25,0.01
2013-3-11,63.9,47.9,39.1,52.9,42.1,28.4,92,81,62,29.94,29.67,16,1,17,0.89
2013-3-12,55.0,44.0,35.6,33.2,27.5,23.0,72,54,33,30.11,29.94,12,1,13,0.00
2013-3-13,45.5,39.0,31.9,29.2,22.0,17.3,64,51,36,30.37,30.09,17,2,17,0.00
2013-3-14,51.9,37.4,26.0,35.7,22.4,14.6,88,58,26,30.40,30.18,10,1,10,0.08
2013-3-15,76.0,51.5,34.3,46.7,38.0,31.7,90,65,32,30.18,29.82,15,1,19,0.01
2013-3-16,77.9,66.6,55.0,51.5,47.1,43.0,66,50,36,29.89,29.74,19,2,21,0.00
2013-3-17,59.8,51.7,47.6,48.0,43.3,41.1,80,73,62,29.92,29.74,12,1,14,0.00
2013-3-18,64.0,57.3,44.5,57.8,50.6,38.4,93,78,67,29.94,29.64,21,2,25,1.08
2013-3-19,55.0,46.0,37.6,38.2,25.2,10.9,90,51,21,30.14,29.94,15,1,15,0.00
2013-3-20,54.2,41.7,29.3,29.2,21.6,13.4,62,45,27,30.13,29.97,17,2,18,0.00
2013-3-21,43.2,33.4,22.7,16.5,13.2,9.6,71,45,27,30.07,29.94,13,1,14,0.00
2013-3-22,46.0,39.5,33.1,25.8,20.5,14.4,52,46,37,30.01,29.93,10,1,10,0.00
2013-3-23,53.9,46.9,40.5,44.5,37.9,25.8,85,71,50,29.96,29.69,11,1,11,0.04
2013-3-24,55.9,46.6,35.9,54.2,41.7,24.5,94,84,60,29.69,29.35,25,3,25,0.24
2013-3-25,39.2,34.9,32.1,28.5,24.9,22.4,86,67,55,30.10,29.66,21,3,21,0.01
2013-3-26,38.9,35.0,31.2,28.8,26.7,24.0,87,72,57,30.31,30.09,11,1,12,0.03
2013-3-27,51.9,40.2,29.0,27.1,24.3,18.9,83,56,32,30.37,30.27,11,1,11,0.00
2013-3-28,59.9,43.3,34.7,32.7,27.6,24.2,73,56,32,30.35,30.25,8,0,10,0.00
2013-3-29,50.2,47.7,44.6,46.3,40.4,31.7,92,77,52,30.28,30.15,8,0,8,0.50
2013-3-30,59.3,51.1,45.1,51.5,46.7,43.2,93,86,65,30.16,29.87,6,0,6,0.21
2013-3-31,56.2,53.1,48.3,54.2,50.7,45.8,93,92,88,29.88,29.82,7,0,10,0.20
2013-4-1,61.5,50.3,44.1,45.8,39.2,26.2,93,69,41,30.12,29.85,13,1,13,0.01
2013-4-2,51.4,43.8,38.3,30.5,23.9,17.5,57,46,28,30.24,30.12,7,0,7,0.00
2013-4-3,53.9,46.3,36.9,22.4,19.5,15.6,47,35,26,30.26,30.13,13,2,15,0.00
2013-4-4,46.8,44.8,41.8,44.2,35.7,21.0,92,73,36,30.13,29.95,7,0,7,0.12
2013-4-5,66.4,52.2,41.9,43.5,38.3,27.5,92,65,27,30.08,29.97,7,0,14,0.00
2013-4-6,73.5,60.6,44.9,40.7,37.3,34.2,75,45,27,30.09,29.92,15,1,17,0.00
2013-4-7,76.0,65.7,56.9,51.4,44.8,37.3,62,48,34,30.01,29.93,15,2,17,0.00
2013-4-8,77.2,65.1,56.2,55.6,50.3,45.3,71,60,42,29.98,29.88,15,1,18,0.00
2013-4-9,77.0,68.8,62.0,61.9,57.0,53.5,75,66,55,30.07,29.92,12,1,12,0.00
2013-4-10,86.5,74.9,65.2,60.6,56.8,54.2,74,55,37,29.99,29.73,15,1,15,0.00
2013-4-11,74.0,65.2,51.0,59.9,56.8,48.8,93,76,52,29.75,29.50,15,2,17,2.07
2013-4-12,65.3,53.5,41.1,48.8,39.9,33.8,93,63,36,29.93,29.65,15,1,18,0.00
2013-4-13,67.8,55.2,40.6,39.8,35.2,30.4,73,49,27,30.06,29.93,11,0,11,0.00
2013-4-14,73.3,59.0,48.9,49.9,44.1,38.0,75,60,28,29.96,29.82,21,2,21,0.00
2013-4-15,80.3,68.3,56.6,58.4,54.5,49.9,83,63,42,29.96,29.83,13,1,13,0.00
2013-4-16,81.1,72.3,64.0,66.6,62.2,57.0,81,71,59,30.08,29.94,18,1,18,0.00
2013-4-17,88.6,77.0,69.6,68.3,63.6,59.8,82,65,43,30.09,29.89,20,1,20,0.00
2013-4-18,83.6,74.1,67.9,62.9,60.0,56.6,83,63,43,29.89,29.55,21,3,24,0.06
2013-4-19,68.3,47.8,38.6,63.6,39.2,30.7,90,73,53,30.08,29.53,19,2,19,0.88
2013-4-20,62.3,49.6,36.0,36.2,31.4,25.1,85,54,27,30.27,30.08,11,0,12,0.00
2013-4-21,66.3,55.4,42.5,37.3,33.1,28.5,63,44,29,30.35,30.20,9,0,9,0.00
2013-4-22,73.2,60.8,46.4,46.2,40.8,36.6,75,50,29,30.23,30.05,14,1,14,0.00
2013-4-23,75.3,65.0,55.0,53.3,48.7,43.3,71,56,44,30.08,29.92,16,1,17,0.00
2013-4-24,66.9,54.0,45.7,57.0,45.8,35.2,91,74,59,30.25,29.79,19,1,19,0.34
2013-4-25,64.7,52.1,37.8,39.6,34.9,29.0,88,55,28,30.34,30.23,9,0,9,0.14
2013-4-26,60.7,52.8,44.9,47.4,42.0,36.9,88,68,46,30.39,30.23,11,0,11,0.01
2013-4-27,59.5,53.2,50.4,57.3,51.1,47.3,94,92,88,30.31,29.90,19,1,19,2.43
2013-4-28,68.3,60.8,56.2,60.6,54.6,50.4,95,81,63,29.95,29.85,9,0,10,0.08
2013-4-29,72.5,61.8,52.3,55.5,51.6,48.3,92,71,44,29.98,29.87,4,0,4,0.00
2013-4-30,78.8,66.2,52.6,58.5,51.7,47.3,90,63,34,29.99,29.89,7,0,13,0.00
2013-5-1,79.4,68.1,58.1,60.8,56.2,52.3,84,67,47,30.08,29.98,11,0,12,0.00
2013-5-2,75.8,68.3,59.6,60.3,56.0,52.3,82,65,54,30.11,30.01,12,0,12,0.00
2013-5-3,74.4,66.5,52.8,57.3,54.2,47.3,84,65,50,30.01,29.80,28,3,28,0.18
2013-5-4,52.6,45.9,43.8,46.9,43.0,41.6,93,90,82,29.93,29.82,5,0,6,0.95
2013-5-5,58.4,50.8,44.6,49.8,46.3,42.7,93,85,69,29.90,29.75,9,0,9,0.05
2013-5-6,64.2,55.5,50.2,51.9,48.5,41.8,93,79,46,29.87,29.71,13,0,13,0.11
2013-5-7,71.5,59.2,46.8,55.7,50.7,44.3,93,75,51,29.96,29.86,9,0,9,0.00
2013-5-8,78.3,67.0,55.0,59.5,55.8,52.1,92,70,46,30.00,29.91,9,0,9,0.00
2013-5-9,81.4,70.6,58.9,62.1,57.2,53.5,88,64,40,30.04,29.92,12,0,12,0.00
2013-5-10,72.3,66.4,62.1,63.2,60.6,57.7,92,82,69,29.94,29.84,14,1,15,0.28
2013-5-11,66.3,61.7,57.2,61.6,55.0,44.3,93,80,60,30.02,29.86,11,0,11,0.13
2013-5-12,63.7,55.9,47.0,44.0,35.0,27.9,71,47,28,30.14,30.02,12,0,12,0.00
2013-5-13,68.9,57.1,42.5,40.3,35.9,28.9,81,49,27,30.22,30.10,9,0,9,0.00
2013-5-14,85.3,69.4,50.8,58.9,49.9,37.3,69,51,36,30.14,29.93,15,1,15,0.00
2013-5-15,85.5,74.1,62.9,58.4,52.9,47.8,67,49,28,30.05,29.91,14,1,15,0.00
2013-5-16,84.1,74.4,66.1,62.9,57.3,53.0,71,56,40,29.98,29.88,10,0,10,0.00
2013-5-17,68.6,66.2,64.2,66.5,60.9,52.8,93,84,60,30.01,29.91,13,0,13,0.46
2013-5-18,81.6,72.5,64.5,68.4,64.7,62.1,94,78,56,29.96,29.89,6,0,6,0.01
2013-5-19,86.7,76.2,69.4,73.5,68.6,65.0,93,79,57,29.96,29.86,13,0,13,0.01
2013-5-20,83.6,73.8,65.0,70.8,65.7,61.2,89,77,61,29.98,29.88,11,0,11,0.00
2013-5-21,84.9,73.4,66.0,71.3,65.1,59.7,89,76,51,29.96,29.79,20,0,25,0.22
2013-5-22,79.0,69.8,62.7,67.9,63.3,60.5,93,81,62,29.86,29.75,13,0,13,0.09
2013-5-23,77.2,68.5,62.4,61.3,57.3,53.0,90,69,45,30.04,29.84,12,0,12,0.01
2013-5-24,69.8,62.4,55.7,55.9,47.6,42.5,81,60,41,30.27,30.05,10,0,10,0.00
2013-5-25,76.8,64.8,51.9,49.1,45.3,37.2,83,53,26,30.31,30.13,7,0,7,0.00
2013-5-26,81.4,70.1,57.2,57.5,52.5,46.7,80,56,34,30.20,30.08,9,0,10,0.00
2013-5-27,86.7,74.0,61.5,61.3,57.6,53.9,79,58,36,30.10,29.98,17,0,17,0.00
2013-5-28,87.8,77.7,69.8,61.2,58.3,53.3,68,53,35,30.05,29.95,15,0,15,0.00
2013-5-29,87.6,77.8,66.9,66.4,61.9,58.3,76,59,44,30.08,29.96,12,0,12,0.00
2013-5-30,84.3,77.5,69.8,73.9,64.8,60.5,89,65,55,30.07,29.94,14,1,14,0.17
2013-5-31,84.0,76.5,70.3,70.4,66.2,63.4,80,71,59,30.00,29.90,11,1,16,0.00
2013-6-1,87.6,75.1,67.8,73.0,66.3,64.2,92,75,53,29.95,29.76,17,1,18,0.44
2013-6-2,72.1,68.2,66.3,67.7,65.1,64.0,93,90,78,29.90,29.85,5,0,5,0.01
2013-6-3,76.9,69.4,61.5,61.5,57.4,53.8,86,67,46,29.99,29.89,5,0,6,0.00
2013-6-4,81.2,70.6,60.1,61.3,56.5,53.7,81,62,39,30.01,29.92,6,0,10,0.00
2013-6-5,79.2,71.5,65.5,70.6,64.8,58.6,91,80,68,29.95,29.79,13,0,13,0.29
2013-6-6,79.8,72.5,68.1,70.2,66.2,64.1,92,81,64,29.79,29.69,6,0,6,0.11
2013-6-7,79.0,70.4,66.0,67.7,64.7,61.0,91,83,56,29.82,29.70,7,0,7,0.34
2013-6-8,80.3,71.8,64.1,67.2,61.2,56.0,94,72,45,29.97,29.81,5,0,6,0.01
2013-6-9,80.9,72.0,65.6,71.4,65.5,59.1,91,80,67,29.99,29.82,12,0,13,0.32
2013-6-10,84.0,73.2,66.9,71.2,66.5,64.2,93,80,56,29.90,29.79,12,0,15,0.99
2013-6-11,89.3,79.5,68.9,72.1,68.0,62.3,90,69,48,29.97,29.90,7,0,7,0.00
2013-6-12,91.6,83.3,77.2,75.4,71.8,70.3,83,69,54,29.99,29.83,13,1,13,0.00
2013-6-13,88.6,80.2,71.6,74.4,69.2,59.2,78,70,55,29.89,29.76,14,1,15,0.00
2013-6-14,82.2,74.0,63.4,59.7,55.6,52.1,75,54,36,29.99,29.88,6,0,9,0.00
2013-6-15,87.8,74.9,63.7,65.9,60.3,56.6,86,63,36,30.05,29.96,9,0,10,0.00
2013-6-16,87.0,78.4,70.1,69.9,66.2,61.1,80,67,55,30.02,29.91,9,0,11,0.00
2013-6-17,87.8,75.8,69.8,73.3,68.1,63.9,90,78,60,29.93,29.82,11,0,11,0.07
2013-6-18,80.1,72.5,66.8,67.2,65.0,62.0,94,79,56,29.91,29.76,6,0,6,1.10
2013-6-19,84.0,76.1,67.8,70.3,65.3,61.9,92,71,49,30.01,29.89,6,0,6,0.00
2013-6-20,89.3,77.5,68.4,70.3,65.7,60.8,89,68,46,30.11,30.01,11,0,13,0.00
2013-6-21,86.1,76.9,66.3,70.4,65.6,61.7,86,69,49,30.17,30.06,11,0,11,0.00
2013-6-22,87.6,77.6,69.8,70.4,66.5,63.9,88,70,48,30.15,30.01,9,0,9,0.09
2013-6-23,85.7,77.8,69.3,69.1,65.7,62.8,88,68,48,30.11,30.00,9,0,9,0.00
2013-6-24,87.8,77.9,71.8,72.5,67.7,64.1,84,72,53,30.11,30.02,10,0,14,0.00
2013-6-25,89.3,80.5,72.0,73.9,70.2,66.3,90,72,54,30.06,29.90,10,0,10,0.00
2013-6-26,92.1,82.7,74.4,72.4,70.2,67.8,85,67,47,29.94,29.76,14,1,14,0.00
2013-6-27,93.4,82.5,71.6,76.4,69.3,65.2,84,66,45,29.84,29.75,17,1,17,0.01
2013-6-28,87.4,80.6,74.6,72.4,67.3,61.8,76,65,43,29.78,29.61,11,0,11,0.00
2013-6-29,87.4,77.9,68.8,64.7,61.3,58.4,80,58,40,29.65,29.58,12,0,14,0.01
2013-6-30,81.4,71.4,62.4,65.4,61.5,58.2,87,72,47,29.74,29.62,5,0,11,0.00
2013-7-1,81.4,72.1,66.1,68.0,63.7,61.9,90,76,58,29.84,29.72,9,0,9,0.00
2013-7-2,81.1,72.1,64.2,64.4,61.9,60.3,91,72,50,29.98,29.83,9,0,9,0.00
2013-7-3,84.0,74.5,65.2,67.6,63.3,60.6,88,70,48,30.05,29.97,9,0,10,0.02
2013-7-4,71.5,68.2,66.4,67.6,65.9,64.5,94,92,87,30.05,29.99,9,0,9,1.40
2013-7-5,76.7,70.4,66.4,73.0,68.2,64.6,95,93,82,30.07,29.99,10,0,10,1.11
2013-7-6,74.0,70.1,66.3,69.5,67.1,64.5,95,90,82,30.09,30.01,10,0,10,0.88
2013-7-7,69.8,68.1,66.4,67.3,65.3,63.7,93,91,90,30.07,30.01,5,0,5,0.00
2013-7-19,89.7,85.0,75.4,75.3,70.8,67.3,93,63,50,30.04,29.89,6,0,6,0.01
2013-7-20,89.7,80.6,72.1,74.1,70.0,67.4,91,72,52,29.93,29.80,11,0,19,0.88
2013-7-21,87.2,77.0,71.3,75.1,70.7,66.9,93,82,63,29.92,29.85,8,0,8,0.01
2013-7-22,76.5,73.2,71.5,71.5,69.3,66.8,93,88,81,29.88,29.81,10,0,12,0.44
2013-7-23,86.5,78.2,70.8,74.1,70.2,67.5,93,78,55,29.87,29.75,9,0,10,0.00
2013-7-24,84.7,76.5,69.9,72.4,66.3,61.3,84,71,54,29.90,29.77,7,0,7,0.00
2013-7-25,82.4,73.7,63.9,65.1,61.4,59.5,88,67,49,30.01,29.88,8,0,9,0.00
2013-7-26,84.3,74.6,63.4,65.7,62.5,59.4,89,67,48,30.02,29.93,7,0,7,0.00
2013-7-27,82.6,74.9,68.4,68.7,65.0,60.6,89,72,51,29.94,29.82,9,0,10,0.43
2013-7-28,77.2,68.6,59.5,65.0,56.8,48.9,89,68,45,30.05,29.90,5,0,5,0.00
2013-7-29,79.6,70.5,60.7,61.2,58.1,53.4,89,67,44,30.15,30.04,6,0,7,0.00
2013-7-30,80.7,72.0,66.1,70.3,64.5,58.0,93,78,60,30.14,30.05,11,0,11,0.21
2013-7-31,80.3,73.5,67.9,75.1,70.2,66.1,95,90,74,30.06,29.89,6,0,12,0.18
2013-8-1,83.0,75.1,69.8,71.8,67.6,63.7,94,79,55,29.99,29.90,4,0,10,0.00
2013-8-2,83.8,75.3,65.6,66.7,63.8,59.1,93,70,45,30.01,29.93,6,0,7,0.00
2013-8-3,78.6,74.5,69.3,71.6,68.6,63.5,91,82,68,30.01,29.92,7,0,7,0.04
2013-8-4,83.8,76.2,71.5,70.4,64.9,56.8,93,70,43,30.06,29.98,7,0,8,0.00
2013-8-5,83.0,73.7,66.0,65.8,61.5,57.2,81,67,45,30.05,29.91,5,0,6,0.00
2013-8-6,81.4,76.1,71.1,74.7,70.6,63.4,90,83,73,29.92,29.86,4,0,5,0.06
2013-8-7,80.9,75.9,71.8,75.0,72.0,69.3,93,88,79,29.94,29.85,10,0,10,0.56
2013-8-8,77.2,74.2,72.0,74.4,71.2,68.7,93,91,85,29.96,29.87,7,0,7,0.87
2013-8-9,88.4,77.9,71.8,77.7,73.3,69.6,94,86,63,29.99,29.89,18,0,21,0.22
2013-8-10,86.1,78.5,72.0,74.3,71.3,69.2,93,79,60,30.07,29.97,9,0,9,0.00
2013-8-11,77.2,75.5,74.6,73.9,71.7,70.9,91,88,84,30.08,30.02,4,0,4,0.05
2013-9-16,72.3,30.8,71.3,55.3,-33.5,-99.9,57,24,55,30.16,30.15,0,0,11,0.00
2013-10-14,51.6,51.6,51.6,45.0,45.0,45.0,78,78,78,30.56,30.56,0,0,0,0.00